Hannover, Germany

1:04 PM CET on November 21, 2018 (GMT +0100)
Hannover

Weather History for EDDV - July, 2018

Change the Weather History Date:

Thursday, July 12, 2018

  Actual Average Record
Temperature  
Mean Temperature 68 °F -  
Max Temperature 78 °F 72 °F 93 °F (2010)
Min Temperature 57 °F 54 °F 48 °F (2002)
Cooling Degree Days 2    
Growing Degree Days 18 (Base 50)    
Moisture  
Dew Point 57 °F    
Average Humidity 73    
Maximum Humidity 100    
Minimum Humidity 42    
Precipitation  
Precipitation 0.00 in 0.08 in - ()
Sea Level Pressure  
Sea Level Pressure 30.01 in    
Wind  
Wind Speed 6 mph ()    
Max Wind Speed 15 mph    
Max Gust Speed -    
Visibility 4.0 miles    
Events Fog    
Averages and records for this station are not official NWS values.
T = Trace of Precipitation, MM = Missing Value Source: Averaged Metar Reports

Daily Weather History Graph

Daily Weather History Graph

Search for Another Location

Airport or City:

Astronomy

Jul. 12, 2018 Rise Set
Actual Time 5:12 AM CEST 9:39 PM CEST
Civil Twilight 4:25 AM CEST 10:27 PM CEST
Nautical Twilight 3:13 AM CEST 11:38 PM CEST
Astronomical Twilight 1:59 AM CEST 12:54 AM CEST
Moon 4:28 AM CEST (7/12) 9:02 PM CEST (7/12)
Length of Visible Light 18h 01m
Length of Day
16h 27m
Waning Crescent, 1% of the Moon is Illuminated
Jul 12
Waning Crescent
Jul 13
New
Jul 19
First Quarter
Jul 27
Full
Aug 4
Last Quarter

Hourly Weather History & Observations

Time (CEST) Temp. Dew Point Humidity Pressure Visibility Wind Dir Wind Speed Gust Speed Precip Events Conditions
12:20 AM 57.2 °F 57.2 °F 100% 30.01 in 0.9 mi Variable 2.3 mph - N/A Fog Patches of Fog
12:50 AM 59.0 °F 59.0 °F 100% 30.01 in 2.8 mi Variable 2.3 mph - N/A Fog Fog
1:20 AM 59.0 °F 59.0 °F 100% 30.01 in 1.0 mi Variable 2.3 mph - N/A Fog Fog
1:50 AM 59.0 °F 59.0 °F 100% 30.01 in 1.1 mi Variable 2.3 mph - N/A Fog Fog
2:20 AM 59.0 °F 59.0 °F 100% 30.01 in 1.1 mi WNW 4.6 mph - N/A Fog Shallow Fog
2:50 AM 59.0 °F 59.0 °F 100% 30.01 in 0.9 mi NW 4.6 mph - N/A Fog Shallow Fog
3:20 AM 59.0 °F 59.0 °F 100% 30.01 in - NW 4.6 mph - N/A Fog Fog
3:50 AM 59.0 °F 59.0 °F 100% 30.01 in 0.3 mi NW 3.5 mph - N/A Fog Fog
4:20 AM 59.0 °F 59.0 °F 100% 30.01 in 0.4 mi West 3.5 mph - N/A Fog Fog
4:50 AM 59.0 °F 59.0 °F 100% 30.01 in 0.4 mi NW 6.9 mph - N/A Fog Fog
5:20 AM 59.0 °F 59.0 °F 100% 29.98 in 0.4 mi West 4.6 mph - N/A Fog Fog
5:50 AM 59.0 °F 59.0 °F 100% 29.98 in 0.2 mi West 5.8 mph - N/A Fog Fog
6:20 AM 59.0 °F 59.0 °F 100% 29.98 in 0.4 mi WNW 9.2 mph - N/A Fog Fog
6:50 AM 59.0 °F 59.0 °F 100% 30.01 in 0.5 mi WNW 6.9 mph - N/A Fog Fog
7:20 AM 59.0 °F 59.0 °F 100% 30.01 in 0.8 mi West 5.8 mph - N/A   Overcast
7:50 AM 59.0 °F 59.0 °F 100% 30.01 in 1.9 mi West 6.9 mph - N/A   Mostly Cloudy
8:20 AM 62.6 °F 59.0 °F 88% 30.01 in - West 6.9 mph - N/A   Mostly Cloudy
8:50 AM 62.6 °F 59.0 °F 88% 30.01 in 5.6 mi West 8.1 mph - N/A   Mostly Cloudy
9:20 AM 64.4 °F 59.0 °F 83% 30.01 in 6.2 mi West 9.2 mph - N/A   Scattered Clouds
9:50 AM 66.2 °F 60.8 °F 83% 30.01 in 6.2 mi WNW 8.1 mph - N/A   Partly Cloudy
10:20 AM 69.8 °F 60.8 °F 73% 30.01 in 6.2 mi WNW 10.4 mph - N/A   Scattered Clouds
10:50 AM 71.6 °F 60.8 °F 69% 30.01 in 6.2 mi NW 10.4 mph - N/A   Scattered Clouds
11:20 AM 71.6 °F 59.0 °F 64% 30.01 in 6.2 mi NW 12.7 mph - N/A   Scattered Clouds
11:50 AM 73.4 °F 59.0 °F 61% 30.01 in 6.2 mi NW 10.4 mph - N/A   Scattered Clouds
12:20 PM 73.4 °F 57.2 °F 57% 30.01 in 6.2 mi NNW 11.5 mph - N/A   Scattered Clouds
12:50 PM 73.4 °F 57.2 °F 57% 30.01 in 6.2 mi NNW 10.4 mph - N/A   Scattered Clouds
1:20 PM 77.0 °F 57.2 °F 50% 30.01 in 6.2 mi North 11.5 mph - N/A   Scattered Clouds
1:50 PM 75.2 °F 55.4 °F 50% 30.01 in 6.2 mi NNW 10.4 mph - N/A   Scattered Clouds
2:20 PM 78.8 °F 55.4 °F 44% 30.01 in 6.2 mi North 8.1 mph - N/A   Scattered Clouds
2:50 PM 75.2 °F 53.6 °F 47% 30.01 in - WNW 10.4 mph - N/A   Clear
3:20 PM 77.0 °F 53.6 °F 44% 30.01 in - Variable 6.9 mph - N/A   Clear
3:50 PM 78.8 °F 53.6 °F 42% 30.01 in - North 8.1 mph - N/A   Clear
4:20 PM 78.8 °F 53.6 °F 42% 29.98 in - Variable 6.9 mph - N/A   Clear
4:50 PM 78.8 °F 53.6 °F 42% 29.98 in 6.2 mi NNW 10.4 mph - N/A   Scattered Clouds
5:20 PM 77.0 °F 53.6 °F 44% 30.01 in 6.2 mi NNW 11.5 mph - N/A   Scattered Clouds
5:50 PM 78.8 °F 55.4 °F 44% 30.01 in 6.2 mi NW 9.2 mph - N/A   Scattered Clouds
6:20 PM 77.0 °F 55.4 °F 47% 29.98 in - NNW 9.2 mph - N/A   Clear
6:50 PM 77.0 °F 59.0 °F 54% 30.01 in 6.2 mi WNW 15.0 mph - N/A   Mostly Cloudy
7:20 PM 75.2 °F 57.2 °F 53% 30.01 in 6.2 mi NW 13.8 mph - N/A   Mostly Cloudy
7:50 PM 73.4 °F 57.2 °F 57% 30.01 in 6.2 mi WNW 15.0 mph - N/A   Mostly Cloudy
8:20 PM 71.6 °F 57.2 °F 60% 30.01 in 6.2 mi WNW 9.2 mph - N/A   Mostly Cloudy
8:50 PM 71.6 °F 57.2 °F 60% 30.01 in 6.2 mi NW 6.9 mph - N/A   Mostly Cloudy
9:20 PM 69.8 °F 57.2 °F 64% 30.04 in 6.2 mi WNW 5.8 mph - N/A   Mostly Cloudy
9:50 PM 69.8 °F 55.4 °F 60% 30.04 in 6.2 mi NW 5.8 mph - N/A   Mostly Cloudy
10:20 PM 66.2 °F 55.4 °F 68% 30.04 in - NNW 4.6 mph - N/A   Clear
10:50 PM 64.4 °F 55.4 °F 73% 30.06 in - WNW 5.8 mph - N/A   Clear
11:20 PM 64.4 °F 55.4 °F 73% 30.06 in - NW 3.5 mph - N/A   Clear
11:50 PM 62.6 °F 55.4 °F 77% 30.06 in - NNW 3.5 mph - N/A   Clear